Weather History for LTCI - November, 2012

Change the Weather History Date:

Monday, November 12, 2012

  Actual Average Record
Temperature  
Mean Temperature 46 °F -  
Max Temperature 51 °F 46 °F 55 °F (2004)
Min Temperature 41 °F 29 °F 14 °F (2011)
Degree Days  
Heating Degree Days 19    
Moisture  
Dew Point 37 °F    
Average Humidity 69    
Maximum Humidity 81    
Minimum Humidity 49    
Precipitation  
Precipitation 0.00 in 0.05 in - ()
Sea Level Pressure  
Sea Level Pressure 30.09 in    
Wind  
Wind Speed 12 mph ()    
Max Wind Speed 23 mph    
Max Gust Speed 39 mph    
Visibility 6.2 miles    
Events Rain    
Averages and records for this station are not official NWS values.
T = Trace of Precipitation, MM = Missing Value Source: Averaged Metar Reports

Daily Weather History Graph

Daily Weather History Graph

Search for Another Location

Airport or City:

Trip Planner

Search our weather history database for the weather conditions in past years. The results will help you decide how hot, cold, wet, or windy it might be!

Date:

Astronomy

Nov. 12, 2012 Rise Set
Actual Time 5:45 AM EET 3:55 PM EET
Civil Twilight 5:17 AM EET 4:24 PM EET
Nautical Twilight 4:45 AM EET 4:55 PM EET
Astronomical Twilight 4:13 AM EET 5:27 PM EET
Moon 3:44 AM EET (11/12) 2:44 PM EET (11/12)
Length of Visible Light 11h 07m
Length of Day
10h 10m
Waning Crescent, 3% of the Moon is Illuminated
Nov 12
Waning Crescent
Nov 14
New
Nov 20
First Quarter
Nov 28
Full
Dec 6
Last Quarter

Hourly Weather History & Observations

Time (EET) Temp. Windchill Dew Point Humidity Pressure Visibility Wind Dir Wind Speed Gust Speed Precip Events Conditions
12:50 AM 48.2 °F - 39.2 °F 71% 30.09 in 6.2 mi ESE 19.6 mph - N/A Rain Light Rain Showers
1:50 AM 44.6 °F 36.6 °F 39.2 °F 81% 30.09 in 6.2 mi ESE 19.6 mph - N/A Rain Light Rain Showers
2:00 AM 45 °F - 39 °F 72%  in 6 mi ESE 19.6 mph - - Rain Light Rain Showers
2:50 AM 48.2 °F - 37.4 °F 66% 30.09 in 6.2 mi ESE 10.4 mph - N/A   Mostly Cloudy
3:50 AM 46.4 °F 40.7 °F 39.2 °F 76% 30.12 in 6.2 mi East 12.7 mph - N/A Rain Light Rain Showers
4:50 AM 46.4 °F 44.3 °F 39.2 °F 76% 30.12 in 6.2 mi East 4.6 mph - N/A   Mostly Cloudy
5:50 AM 44.6 °F 40.2 °F 39.2 °F 81% 30.12 in 6.2 mi NE 8.1 mph - N/A   Mostly Cloudy
6:50 AM 46.4 °F 41.9 °F 39.2 °F 76% 30.12 in 6.2 mi ENE 9.2 mph - N/A   Mostly Cloudy
7:50 AM 48.2 °F - 39.2 °F 71% 30.15 in 6.2 mi ESE 11.5 mph - N/A Rain Light Rain Showers
8:00 AM 47 °F - 38 °F 63%  in 6 mi ESE 10.4 mph - - Rain Light Rain Showers
8:50 AM 48.2 °F - 37.4 °F 66% 30.09 in 6.2 mi ESE 23.0 mph 39.1 mph N/A   Mostly Cloudy
9:50 AM 50.0 °F - 37.4 °F 62% 30.09 in 6.2 mi ESE 18.4 mph - N/A   Mostly Cloudy
10:50 AM 51.8 °F - 37.4 °F 58% 30.09 in 6.2 mi SE 8.1 mph - N/A   Mostly Cloudy
11:50 AM 51.8 °F - 37.4 °F 58% 30.09 in 6.2 mi ESE 6.9 mph - N/A   Mostly Cloudy
12:50 PM 48.2 °F - 37.4 °F 66% 30.06 in 6.2 mi ESE 17.3 mph - N/A   Mostly Cloudy
1:50 PM 50.0 °F - 37.4 °F 62% 30.06 in 6.2 mi ENE 18.4 mph 29.9 mph N/A   Mostly Cloudy
2:00 PM 50 °F - 36 °F 49%  in 7 mi ENE 18.4 mph - -   Partly Cloudy
2:50 PM 48.2 °F - 37.4 °F 66% 30.06 in 6.2 mi NE 16.1 mph - N/A   Mostly Cloudy
3:50 PM 46.4 °F 42.4 °F 35.6 °F 66% 30.06 in 6.2 mi ENE 8.1 mph - N/A   Mostly Cloudy
4:50 PM 44.6 °F 40.7 °F 37.4 °F 76% 30.06 in 6.2 mi North 6.9 mph - N/A   Mostly Cloudy
5:50 PM 46.4 °F 42.4 °F 35.6 °F 66% 30.06 in 6.2 mi Variable 8.1 mph - N/A   Mostly Cloudy
6:50 PM 42.8 °F 39.3 °F 37.4 °F 81% 30.06 in 6.2 mi Variable 5.8 mph - N/A   Mostly Cloudy
7:50 PM 41.0 °F 39.0 °F 35.6 °F 81% 30.06 in 6.2 mi Variable 3.5 mph - N/A   Mostly Cloudy
8:00 PM 41 °F - 36 °F 74%  in 7 mi North 3.5 mph - -   Partly Cloudy
8:50 PM 44.6 °F 41.4 °F 35.6 °F 71% 30.06 in 6.2 mi NNE 5.8 mph - N/A   Mostly Cloudy
9:50 PM 44.6 °F 40.7 °F 33.8 °F 66% 30.09 in 6.2 mi East 6.9 mph - N/A   Mostly Cloudy
10:50 PM 42.8 °F 37.5 °F 35.6 °F 76% 30.06 in 6.2 mi East 9.2 mph - N/A   Mostly Cloudy
11:50 PM 46.4 °F 42.4 °F 33.8 °F 62% 30.09 in 6.2 mi East 8.1 mph - N/A Rain Light Rain Showers